Time,TemperatureF,DewpointF,PressureIn,WindDirection,WindDirectionDegrees,WindSpeedMPH,WindSpeedGustMPH,Humidity,HourlyPrecipIn,Conditions,Clouds,dailyrainin,SoftwareType,DateUTC
2013-06-28 00:02:00,73.0,70.0,29.65,North,0,0.0,-999.0,88,-99.99,,,-99.99,,2013-06-28 04:02:00,
2013-06-28 00:22:00,73.0,70.0,29.64,North,0,0.0,-999.0,88,-99.99,,,-99.99,,2013-06-28 04:22:00,
2013-06-28 00:33:00,73.0,70.0,29.64,North,0,0.0,-999.0,88,-99.99,,,-99.99,,2013-06-28 04:33:00,
2013-06-28 00:43:00,73.0,70.0,29.63,North,0,0.0,-999.0,88,-99.99,,,-99.99,,2013-06-28 04:43:00,
2013-06-28 00:53:00,73.0,70.0,29.63,North,0,0.0,-999.0,88,-99.99,,,-99.99,,2013-06-28 04:53:00,
2013-06-28 01:02:00,73.0,70.0,29.63,North,0,0.0,-999.0,88,-99.99,,,-99.99,,2013-06-28 05:02:00,
2013-06-28 01:11:00,73.0,70.0,29.63,North,0,0.0,-999.0,88,-99.99,,,-99.99,,2013-06-28 05:11:00,
2013-06-28 01:22:00,73.0,70.0,29.62,North,0,0.0,-999.0,88,-99.99,,,-99.99,,2013-06-28 05:22:00,
2013-06-28 01:43:00,73.0,70.0,29.62,North,0,0.0,-999.0,88,-99.99,,,-99.99,,2013-06-28 05:43:00,
2013-06-28 01:53:00,73.0,70.0,29.61,North,0,0.0,-999.0,88,-99.99,,,-99.99,,2013-06-28 05:53:00,
2013-06-28 02:02:00,73.0,70.0,29.61,North,0,0.0,-999.0,88,-99.99,,,-99.99,,2013-06-28 06:02:00,
2013-06-28 02:22:00,73.0,70.0,29.60,WSW,250,5.0,-999.0,88,-99.99,,,-99.99,,2013-06-28 06:22:00,
2013-06-28 02:33:00,73.0,70.0,29.59,North,0,0.0,-999.0,88,-99.99,,,-99.99,,2013-06-28 06:33:00,
2013-06-28 02:43:00,73.0,70.0,29.59,North,0,0.0,-999.0,88,-99.99,,,-99.99,,2013-06-28 06:43:00,
2013-06-28 03:01:00,73.0,70.0,29.59,North,0,0.0,-999.0,88,-99.99,,,-99.99,,2013-06-28 07:01:00,
2013-06-28 03:11:00,73.0,70.0,29.58,North,0,0.0,-999.0,88,-99.99,,,-99.99,,2013-06-28 07:11:00,
2013-06-28 03:22:00,73.0,70.0,29.58,North,0,0.0,-999.0,88,-99.99,,,-99.99,,2013-06-28 07:22:00,
2013-06-28 03:33:00,73.0,70.0,29.58,North,-999,-999.0,-999.0,88,-99.99,,,-99.99,,2013-06-28 07:33:00,
2013-06-28 03:43:00,73.0,70.0,29.58,North,-999,-999.0,-999.0,88,-99.99,,,-99.99,,2013-06-28 07:43:00,
2013-06-28 04:02:00,73.0,70.0,29.58,North,-999,-999.0,-999.0,88,-99.99,,,-99.99,,2013-06-28 08:02:00,
2013-06-28 04:11:00,73.0,70.0,29.58,North,-999,-999.0,-999.0,88,-99.99,,,-99.99,,2013-06-28 08:11:00,
2013-06-28 04:22:00,73.0,70.0,29.58,North,0,0.0,-999.0,88,-99.99,,,-99.99,,2013-06-28 08:22:00,
2013-06-28 04:43:00,72.0,70.0,29.57,North,0,0.0,-999.0,94,-99.99,,,-99.99,,2013-06-28 08:43:00,
2013-06-28 04:52:00,72.0,70.0,29.57,North,0,0.0,-999.0,94,-99.99,,,-99.99,,2013-06-28 08:52:00,
2013-06-28 05:02:00,72.0,70.0,29.57,North,0,0.0,-999.0,94,-99.99,,,-99.99,,2013-06-28 09:02:00,
2013-06-28 05:11:00,72.0,70.0,29.58,North,0,0.0,-999.0,94,-99.99,,,-99.99,,2013-06-28 09:11:00,
2013-06-28 05:22:00,72.0,70.0,29.58,North,0,0.0,-999.0,94,-99.99,,,-99.99,,2013-06-28 09:22:00,
2013-06-28 05:33:00,72.0,70.0,29.58,North,0,0.0,-999.0,94,-99.99,,,-99.99,,2013-06-28 09:33:00,
2013-06-28 05:42:00,72.0,70.0,29.58,North,0,0.0,-999.0,94,-99.99,,,-99.99,,2013-06-28 09:42:00,
2013-06-28 06:02:00,72.0,70.0,29.58,North,0,0.0,-999.0,94,-99.99,,,-99.99,,2013-06-28 10:02:00,
2013-06-28 06:12:00,72.0,70.0,29.58,North,0,0.0,-999.0,94,-99.99,,,-99.99,,2013-06-28 10:12:00,
2013-06-28 06:22:00,72.0,70.0,29.58,North,0,0.0,-999.0,94,-99.99,,,-99.99,,2013-06-28 10:22:00,
2013-06-28 06:42:00,72.0,70.0,29.58,North,0,0.0,-999.0,94,-99.99,,,-99.99,,2013-06-28 10:42:00,
2013-06-28 07:02:00,72.0,70.0,29.60,North,0,0.0,-999.0,94,-99.99,,,-99.99,,2013-06-28 11:02:00,
2013-06-28 07:22:00,72.0,70.0,29.60,North,0,0.0,-999.0,94,-99.99,,,-99.99,,2013-06-28 11:22:00,
2013-06-28 07:34:00,73.0,70.0,29.60,North,0,0.0,-999.0,88,-99.99,,,-99.99,,2013-06-28 11:34:00,
2013-06-28 07:43:00,73.0,70.0,29.60,North,0,0.0,-999.0,88,-99.99,,,-99.99,,2013-06-28 11:43:00,
2013-06-28 08:02:00,73.0,68.0,29.59,North,0,0.0,-999.0,83,-99.99,,,-99.99,,2013-06-28 12:02:00,
2013-06-28 08:22:00,73.0,70.0,29.59,North,0,0.0,-999.0,88,-99.99,,,-99.99,,2013-06-28 12:22:00,
2013-06-28 08:34:00,73.0,70.0,29.59,North,0,0.0,-999.0,88,-99.99,,,-99.99,,2013-06-28 12:34:00,
2013-06-28 08:43:00,73.0,70.0,29.59,North,0,0.0,-999.0,88,-99.99,,,-99.99,,2013-06-28 12:43:00,
2013-06-28 08:52:00,75.0,70.0,29.59,North,0,0.0,-999.0,83,-99.99,,,-99.99,,2013-06-28 12:52:00,
2013-06-28 09:01:00,75.0,70.0,29.59,North,0,0.0,-999.0,83,-99.99,,,-99.99,,2013-06-28 13:01:00,
2013-06-28 09:23:00,77.0,70.0,29.59,North,0,0.0,-999.0,78,-99.99,,,-99.99,,2013-06-28 13:23:00,
2013-06-28 09:33:00,77.0,70.0,29.59,North,0,0.0,-999.0,78,-99.99,,,-99.99,,2013-06-28 13:33:00,
2013-06-28 09:43:00,79.0,72.0,29.58,North,0,0.0,-999.0,78,-99.99,,,-99.99,,2013-06-28 13:43:00,
2013-06-28 09:53:00,79.0,72.0,29.58,North,0,0.0,-999.0,78,-99.99,,,-99.99,,2013-06-28 13:53:00,
2013-06-28 10:02:00,79.0,70.0,29.58,North,0,0.0,-999.0,73,-99.99,,,-99.99,,2013-06-28 14:02:00,
2013-06-28 10:12:00,81.0,72.0,29.57,North,0,0.0,-999.0,74,-99.99,,,-99.99,,2013-06-28 14:12:00,
2013-06-28 10:22:00,81.0,72.0,29.57,North,0,0.0,-999.0,74,-99.99,,,-99.99,,2013-06-28 14:22:00,
2013-06-28 10:44:00,81.0,70.0,29.57,North,0,0.0,-999.0,69,-99.99,,,-99.99,,2013-06-28 14:44:00,
2013-06-28 10:53:00,81.0,70.0,29.57,North,0,0.0,-999.0,69,-99.99,,,-99.99,,2013-06-28 14:53:00,
2013-06-28 11:02:00,82.0,70.0,29.57,North,360,6.0,-999.0,65,-99.99,,,-99.99,,2013-06-28 15:02:00,
2013-06-28 11:24:00,82.0,68.0,29.58,NW,310,6.0,-999.0,61,-99.99,,,-99.99,,2013-06-28 15:24:00,
2013-06-28 11:34:00,82.0,68.0,29.58,NW,310,6.0,-999.0,61,-99.99,,,-99.99,,2013-06-28 15:34:00,
2013-06-28 11:43:00,82.0,70.0,29.57,North,0,0.0,-999.0,65,-99.99,,,-99.99,,2013-06-28 15:43:00,
2013-06-28 11:52:00,82.0,70.0,29.57,North,0,0.0,-999.0,65,-99.99,,,-99.99,,2013-06-28 15:52:00,
2013-06-28 12:02:00,84.0,70.0,29.58,North,0,0.0,-999.0,62,-99.99,,,-99.99,,2013-06-28 16:02:00,
2013-06-28 12:25:00,82.0,70.0,29.58,WSW,240,5.0,-999.0,65,-99.99,,,-99.99,,2013-06-28 16:25:00,
2013-06-28 12:44:00,84.0,72.0,29.58,SW,220,7.0,-999.0,65,-99.99,,,-99.99,,2013-06-28 16:44:00,
2013-06-28 13:02:00,84.0,72.0,29.58,WSW,250,8.0,-999.0,65,-99.99,,,-99.99,,2013-06-28 17:02:00,
2013-06-28 13:11:00,84.0,72.0,29.58,WSW,250,8.0,-999.0,65,-99.99,,,-99.99,,2013-06-28 17:11:00,
2013-06-28 13:22:00,84.0,70.0,29.57,SW,220,9.0,-999.0,62,-99.99,,,-99.99,,2013-06-28 17:22:00,
2013-06-28 13:44:00,84.0,70.0,29.56,North,0,0.0,-999.0,62,-99.99,,,-99.99,,2013-06-28 17:44:00,
2013-06-28 13:52:00,84.0,70.0,29.56,North,0,0.0,-999.0,62,-99.99,,,-99.99,,2013-06-28 17:52:00,
2013-06-28 14:02:00,86.0,68.0,29.55,West,280,12.0,-999.0,55,-99.99,,,-99.99,,2013-06-28 18:02:00,
2013-06-28 14:22:00,86.0,68.0,29.56,North,0,0.0,-999.0,55,-99.99,,,-99.99,,2013-06-28 18:22:00,
2013-06-28 14:33:00,86.0,68.0,29.56,North,0,0.0,-999.0,55,-99.99,,,-99.99,,2013-06-28 18:33:00,
2013-06-28 14:43:00,88.0,70.0,29.55,North,0,0.0,-999.0,55,-99.99,,,-99.99,,2013-06-28 18:43:00,
2013-06-28 14:52:00,88.0,70.0,29.55,North,0,0.0,-999.0,55,-99.99,,,-99.99,,2013-06-28 18:52:00,
2013-06-28 15:01:00,88.0,70.0,29.54,WSW,240,7.0,-999.0,55,-99.99,,,-99.99,,2013-06-28 19:01:00,
2013-06-28 15:22:00,88.0,68.0,29.52,SW,230,10.0,22.0,51,-99.99,,,-99.99,,2013-06-28 19:22:00,
2013-06-28 15:33:00,88.0,68.0,29.52,SW,230,10.0,22.0,51,-99.99,,,-99.99,,2013-06-28 19:33:00,
2013-06-28 15:43:00,86.0,72.0,29.51,SSE,160,9.0,-999.0,62,-99.99,,,-99.99,,2013-06-28 19:43:00,
2013-06-28 16:02:00,84.0,72.0,29.51,SSE,160,8.0,-999.0,65,-99.99,,,-99.99,,2013-06-28 20:02:00,
2013-06-28 16:22:00,82.0,72.0,29.51,North,0,0.0,-999.0,69,-99.99,,,-99.99,,2013-06-28 20:22:00,
2013-06-28 16:43:00,82.0,73.0,29.52,North,0,0.0,-999.0,74,-99.99,,,-99.99,,2013-06-28 20:43:00,
2013-06-28 17:02:00,79.0,73.0,29.53,West,280,7.0,-999.0,83,-99.99,,,-99.99,,2013-06-28 21:02:00,
2013-06-28 17:11:00,79.0,73.0,29.53,West,280,7.0,-999.0,83,-99.99,,,-99.99,,2013-06-28 21:11:00,
2013-06-28 17:23:00,77.0,70.0,29.53,West,260,12.0,16.0,78,-99.99,,,-99.99,,2013-06-28 21:23:00,
2013-06-28 17:34:00,75.0,68.0,29.51,North,0,0.0,-999.0,78,-99.99,,,-99.99,,2013-06-28 21:34:00,
2013-06-28 17:43:00,75.0,68.0,29.51,North,0,0.0,-999.0,78,-99.99,,,-99.99,,2013-06-28 21:43:00,
2013-06-28 18:01:00,73.0,68.0,29.54,West,270,5.0,-999.0,83,-99.99,,,-99.99,,2013-06-28 22:01:00,
2013-06-28 18:22:00,72.0,66.0,29.53,SW,220,6.0,-999.0,83,-99.99,,,-99.99,,2013-06-28 22:22:00,
2013-06-28 18:43:00,72.0,66.0,29.53,North,0,0.0,-999.0,83,-99.99,,,-99.99,,2013-06-28 22:43:00,
2013-06-28 18:52:00,72.0,66.0,29.52,South,190,6.0,-999.0,83,-99.99,,,-99.99,,2013-06-28 22:52:00,
2013-06-28 19:02:00,72.0,66.0,29.52,South,190,6.0,-999.0,83,-99.99,,,-99.99,,2013-06-28 23:02:00,
2013-06-28 19:11:00,72.0,66.0,29.52,North,0,0.0,-999.0,83,-99.99,,,-99.99,,2013-06-28 23:11:00,
2013-06-28 19:23:00,72.0,66.0,29.52,North,0,0.0,-999.0,83,-99.99,,,-99.99,,2013-06-28 23:23:00,
2013-06-28 19:34:00,72.0,66.0,29.54,SW,230,6.0,-999.0,83,-99.99,,,-99.99,,2013-06-28 23:34:00,
2013-06-28 19:43:00,72.0,66.0,29.54,SW,230,6.0,-999.0,83,-99.99,,,-99.99,,2013-06-28 23:43:00,
2013-06-28 19:53:00,70.0,66.0,29.56,SW,230,8.0,-999.0,88,-99.99,,,-99.99,,2013-06-28 23:53:00,
2013-06-28 20:02:00,70.0,66.0,29.56,SW,230,8.0,-999.0,88,-99.99,,,-99.99,,2013-06-29 00:02:00,
2013-06-28 20:12:00,70.0,66.0,29.56,SW,230,8.0,-999.0,88,-99.99,,,-99.99,,2013-06-29 00:12:00,
2013-06-28 20:23:00,70.0,66.0,29.56,SW,230,8.0,-999.0,88,-99.99,,,-99.99,,2013-06-29 00:23:00,
2013-06-28 20:33:00,72.0,68.0,29.53,SW,220,5.0,-999.0,88,-99.99,,,-99.99,,2013-06-29 00:33:00,
2013-06-28 20:42:00,72.0,68.0,29.53,SW,220,5.0,-999.0,88,-99.99,,,-99.99,,2013-06-29 00:42:00,
2013-06-28 20:52:00,72.0,68.0,29.52,North,0,0.0,-999.0,88,-99.99,,,-99.99,,2013-06-29 00:52:00,
2013-06-28 21:01:00,72.0,68.0,29.52,North,0,0.0,-999.0,88,-99.99,,,-99.99,,2013-06-29 01:01:00,
2013-06-28 21:11:00,72.0,68.0,29.54,North,0,0.0,-999.0,88,-99.99,,,-99.99,,2013-06-29 01:11:00,
2013-06-28 21:22:00,72.0,68.0,29.54,North,0,0.0,-999.0,88,-99.99,,,-99.99,,2013-06-29 01:22:00,
2013-06-28 21:32:00,72.0,68.0,29.57,North,0,0.0,-999.0,88,-99.99,,,-99.99,,2013-06-29 01:32:00,
2013-06-28 21:42:00,72.0,68.0,29.57,North,0,0.0,-999.0,88,-99.99,,,-99.99,,2013-06-29 01:42:00,
2013-06-28 22:01:00,72.0,68.0,29.55,North,0,0.0,-999.0,88,-99.99,,,-99.99,,2013-06-29 02:01:00,
2013-06-28 22:11:00,72.0,68.0,29.56,North,0,0.0,-999.0,88,-99.99,,,-99.99,,2013-06-29 02:11:00,
2013-06-28 22:21:00,72.0,68.0,29.56,North,0,0.0,-999.0,88,-99.99,,,-99.99,,2013-06-29 02:21:00,
2013-06-28 22:31:00,72.0,68.0,29.56,North,0,0.0,-999.0,88,-99.99,,,-99.99,,2013-06-29 02:31:00,
2013-06-28 22:41:00,72.0,68.0,29.56,North,0,0.0,-999.0,88,-99.99,,,-99.99,,2013-06-29 02:41:00,
2013-06-28 22:51:00,72.0,68.0,29.57,North,0,0.0,-999.0,88,-99.99,,,-99.99,,2013-06-29 02:51:00,
2013-06-28 23:01:00,72.0,68.0,29.57,North,0,0.0,-999.0,88,-99.99,,,-99.99,,2013-06-29 03:01:00,
2013-06-28 23:11:00,70.0,66.0,29.57,North,0,0.0,-999.0,88,-99.99,,,-99.99,,2013-06-29 03:11:00,
2013-06-28 23:21:00,70.0,66.0,29.57,North,0,0.0,-999.0,88,-99.99,,,-99.99,,2013-06-29 03:21:00,
2013-06-28 23:32:00,70.0,66.0,29.56,North,0,0.0,-999.0,88,-99.99,,,-99.99,,2013-06-29 03:32:00,
2013-06-28 23:41:00,70.0,66.0,29.56,North,0,0.0,-999.0,88,-99.99,,,-99.99,,2013-06-29 03:41:00,
2013-06-28 23:51:00,72.0,68.0,29.57,North,0,0.0,-999.0,88,-99.99,,,-99.99,,2013-06-29 03:51:00,